Location: Santa Cristina
(46.5667°N, 11.7167°E)
Time: 17:05:37
(UTC+00:00)

Nadezhda 3 Rocket - Pass Details

Date: 21 April 2021
Orbit: 956 x 1000 km, 82.9° (Epoch: 12 May)

Event Time Altitude Azimuth Distance (km) Brightness Sun altitude
Exits shadow 01:41:59 41° 195° (SSW) 1,402 4.4 -22.6°
Maximum altitude 01:44:23 82° 278° (W) 1,010 3.9 -22.3°
Drops below altitude 10° 01:50:45 10° 7° (N) 2,760 7.1 -21.6°
Sets 01:53:16 0° 9° (N) 3,706 7.9 -21.3°
